Mayfld Grav Cnty AP, Mayfield, KY

6:10 PM CDT on October 21, 2019 (GMT -0500)
Mayfld Grav Cnty AP, Mayfield

Weather History for KM25 - May, 2019

Change the Weather History Date:

Saturday, May 11, 2019

  Actual Average (KPAH) Record (KPAH)
Temperature  
Mean Temperature 56 °F -  
Max Temperature 60 °F 76 °F 88 °F (1948)
Min Temperature 51 °F 55 °F 38 °F (1990)
Degree Days  
Heating Degree Days 10    
Growing Degree Days 6 (Base 50)    
Moisture  
Dew Point 53 °F    
Average Humidity 89    
Maximum Humidity 100    
Minimum Humidity 77    
Precipitation  
Precipitation 0.02 in - - ()
Sea Level Pressure  
Sea Level Pressure 29.93 in    
Wind  
Wind Speed 5 mph (NNE)    
Max Wind Speed 10 mph    
Max Gust Speed -    
Visibility 9 miles    
Events      
Averages and records for this station are not official NWS values.
T = Trace of Precipitation, MM = Missing Value Source: NWS Daily Summary

Daily Weather History Graph

Daily Weather History Graph

Search for Another Location

Airport or City:

Astronomy

May. 11, 2019 Rise Set
Actual Time 5:50 AM CDT 7:51 PM CDT
Civil Twilight 5:21 AM CDT 8:20 PM CDT
Nautical Twilight 4:47 AM CDT 8:54 PM CDT
Astronomical Twilight 4:09 AM CDT 9:32 PM CDT
Moon 11:59 AM CDT (5/11) 1:31 AM CDT (5/11)
Length of Visible Light 14h 58m
Length of Day
14h 01m
Waxing Crescent, 46% of the Moon is Illuminated
May 11
Waxing Crescent
May 11
First Quarter
May 18
Full
May 26
Last Quarter
Jun 3
New

Hourly Weather History & Observations

Time (CDT) Temp. Dew Point Humidity Pressure Visibility Wind Dir Wind Speed Gust Speed Precip Events Conditions
12:15 AM 55.4 °F 48.2 °F 77% 30.09 in 10.0 mi NNE 5.8 mph - N/A   Overcast
12:35 AM 55.4 °F 48.2 °F 77% 30.09 in 10.0 mi NNE 4.6 mph - N/A   Overcast
12:55 AM 53.6 °F 48.2 °F 82% 30.08 in 10.0 mi NNE 4.6 mph - N/A   Overcast
1:15 AM 53.6 °F 48.2 °F 82% 30.08 in 10.0 mi NNE 4.6 mph - N/A   Overcast
1:35 AM 53.6 °F 48.2 °F 82% 30.07 in 10.0 mi North 4.6 mph - N/A   Overcast
1:55 AM 53.6 °F 48.2 °F 82% 30.06 in 10.0 mi NE 3.5 mph - N/A   Overcast
2:15 AM 53.6 °F 48.2 °F 82% 30.06 in 10.0 mi NNE 5.8 mph - N/A   Overcast
2:35 AM 53.6 °F 48.2 °F 82% 30.05 in 10.0 mi NNE 4.6 mph - N/A   Overcast
2:55 AM 53.6 °F 48.2 °F 82% 30.05 in 10.0 mi NE 5.8 mph - N/A   Overcast
3:15 AM 53.6 °F 48.2 °F 82% 30.04 in 10.0 mi NE 4.6 mph - N/A   Overcast
3:35 AM 53.6 °F 48.2 °F 82% 30.03 in 10.0 mi NE 4.6 mph - N/A   Overcast
3:55 AM 53.6 °F 48.2 °F 82% 30.03 in 10.0 mi NE 4.6 mph - N/A   Overcast
4:15 AM 53.6 °F 48.2 °F 82% 30.02 in 10.0 mi NE 4.6 mph - N/A   Overcast
4:35 AM 53.6 °F 48.2 °F 82% 30.02 in 10.0 mi NE 3.5 mph - N/A   Overcast
4:55 AM 53.6 °F 48.2 °F 82% 30.01 in 10.0 mi NE 3.5 mph - N/A   Overcast
5:15 AM 53.6 °F 48.2 °F 82% 30.00 in 10.0 mi ENE 4.6 mph - N/A   Overcast
5:35 AM 53.6 °F 48.2 °F 82% 30.00 in 10.0 mi NE 4.6 mph - N/A   Overcast
5:55 AM 53.6 °F 48.2 °F 82% 30.00 in 10.0 mi ENE 4.6 mph - N/A   Overcast
6:15 AM 53.6 °F 48.2 °F 82% 30.00 in 10.0 mi ENE 6.9 mph - N/A   Overcast
6:35 AM 53.6 °F 48.2 °F 82% 30.00 in 10.0 mi ENE 5.8 mph - N/A   Overcast
6:55 AM 53.6 °F 50.0 °F 88% 30.00 in 10.0 mi ENE 5.8 mph - N/A   Overcast
7:15 AM 53.6 °F 50.0 °F 88% 30.00 in 10.0 mi ENE 6.9 mph - N/A   Overcast
7:55 AM 55.4 °F 50.0 °F 82% 30.00 in 10.0 mi ENE 8.1 mph - N/A   Overcast
8:15 AM 55.4 °F 51.8 °F 88% 30.00 in 10.0 mi NE 4.6 mph - N/A   Overcast
8:35 AM 55.4 °F 51.8 °F 88% 30.01 in 10.0 mi ENE 5.8 mph - N/A   Overcast
8:55 AM 55.4 °F 51.8 °F 88% 30.01 in 10.0 mi East 4.6 mph - N/A   Overcast
9:15 AM 55.4 °F 51.8 °F 88% 29.99 in 10.0 mi ENE 8.1 mph - N/A   Overcast
9:35 AM 57.2 °F 51.8 °F 82% 29.98 in 10.0 mi ENE 6.9 mph - N/A   Overcast
9:55 AM 59.0 °F 53.6 °F 82% 29.97 in 10.0 mi East 5.8 mph - N/A   Overcast
10:15 AM 59.0 °F 53.6 °F 82% 29.95 in 10.0 mi East 8.1 mph - N/A   Overcast
10:35 AM 59.0 °F 53.6 °F 82% 29.96 in 10.0 mi East 5.8 mph - N/A   Overcast
10:55 AM 59.0 °F 53.6 °F 82% 29.94 in 10.0 mi Calm Calm - N/A   Overcast
11:15 AM 59.0 °F 53.6 °F 82% 29.93 in 10.0 mi NE 5.8 mph - N/A   Overcast
11:35 AM 59.0 °F 53.6 °F 82% 29.93 in 10.0 mi ENE 5.8 mph - N/A   Overcast
11:55 AM 59.0 °F 53.6 °F 82% 29.94 in 10.0 mi East 3.5 mph - N/A   Overcast
12:15 PM 59.0 °F 55.4 °F 88% 29.93 in 5.0 mi NE 4.6 mph - N/A   Overcast
12:35 PM 59.0 °F 55.4 °F 88% 29.92 in 10.0 mi NE 5.8 mph - N/A   Overcast
12:55 PM 57.2 °F 55.4 °F 94% 29.90 in 7.0 mi NE 4.6 mph - N/A   Overcast
1:15 PM 59.0 °F 55.4 °F 88% 29.89 in 7.0 mi NNE 3.5 mph - 0.01 in   Overcast
1:35 PM 59.0 °F 57.2 °F 94% 29.87 in 10.0 mi NE 4.6 mph - 0.01 in   Overcast
1:55 PM 59.0 °F 55.4 °F 88% 29.87 in 10.0 mi ENE 4.6 mph - 0.02 in   Overcast
2:15 PM 59.0 °F 57.2 °F 94% 29.86 in 10.0 mi ENE 5.8 mph - N/A   Overcast
2:35 PM 60.8 °F 57.2 °F 88% 29.86 in 10.0 mi ENE 4.6 mph - N/A   Overcast
2:55 PM 60.8 °F 57.2 °F 88% 29.85 in 10.0 mi Calm Calm - N/A   Overcast
3:15 PM 59.0 °F 57.2 °F 94% 29.85 in 10.0 mi Calm Calm - N/A   Overcast
3:35 PM 59.0 °F 59.0 °F 100% 29.84 in 2.5 mi Calm Calm - N/A   Overcast
4:15 PM 59.0 °F 59.0 °F 100% 29.81 in 4.0 mi NE 3.5 mph - N/A   Overcast
4:35 PM 60.8 °F 59.0 °F 94% 29.81 in 7.0 mi Calm Calm - N/A   Overcast
5:15 PM 59.0 °F 57.2 °F 94% 29.83 in 2.5 mi NW 10.4 mph - N/A   Overcast
5:35 PM 59.0 °F 57.2 °F 94% 29.81 in 5.0 mi NNW 6.9 mph - N/A   Overcast
5:55 PM 57.2 °F 55.4 °F 94% 29.80 in 10.0 mi North 8.1 mph - N/A   Overcast
6:15 PM 57.2 °F 55.4 °F 94% 29.79 in 10.0 mi North 4.6 mph - N/A   Overcast
6:35 PM 57.2 °F 55.4 °F 94% 29.79 in 10.0 mi North 6.9 mph - N/A   Overcast
6:55 PM 57.2 °F 55.4 °F 94% 29.80 in 10.0 mi North 5.8 mph - N/A   Overcast
7:15 PM 55.4 °F 55.4 °F 100% 29.81 in 10.0 mi North 5.8 mph - N/A   Overcast
7:35 PM 55.4 °F 55.4 °F 100% 29.83 in 10.0 mi NW 4.6 mph - N/A   Overcast
7:55 PM 55.4 °F 55.4 °F 100% 29.83 in 10.0 mi North 4.6 mph - N/A   Overcast
8:15 PM 55.4 °F 55.4 °F 100% 29.82 in 10.0 mi NNE 3.5 mph - N/A   Overcast
8:35 PM 55.4 °F 55.4 °F 100% 29.81 in 10.0 mi North 5.8 mph - N/A   Overcast
8:55 PM 55.4 °F 53.6 °F 94% 29.83 in 10.0 mi NNW 4.6 mph - N/A   Overcast
9:15 PM 55.4 °F 53.6 °F 94% 29.83 in 4.0 mi NW 6.9 mph - N/A   Overcast
9:35 PM 53.6 °F 53.6 °F 100% 29.83 in 3.0 mi NNW 9.2 mph - N/A   Overcast
9:55 PM 51.8 °F 51.8 °F 100% 29.84 in 4.0 mi North 5.8 mph - N/A   Overcast
10:15 PM 51.8 °F 51.8 °F 100% 29.84 in 5.0 mi NNW 3.5 mph - N/A   Overcast
10:35 PM 51.8 °F 51.8 °F 100% 29.83 in 10.0 mi NNW 5.8 mph - N/A   Overcast
10:55 PM 51.8 °F 51.8 °F 100% 29.83 in 10.0 mi North 4.6 mph - N/A   Overcast
11:15 PM 51.8 °F 51.8 °F 100% 29.84 in 10.0 mi NW 4.6 mph - N/A   Overcast
11:35 PM 51.8 °F 51.8 °F 100% 29.84 in 10.0 mi WNW 4.6 mph - N/A   Overcast
11:55 PM 51.8 °F 51.8 °F 100% 29.84 in 7.0 mi WNW 5.8 mph - N/A   Overcast